Regional Weather Roundup
Issued by NWS Midland/Odessa, TX

Skip options and go directly to product.
Home | Oldest Version | Next Version | Current Version | All | Text Only | Save Text | Print | Product List | Glossary On

Skip product version selection by date and time.   
018
ASUS44 KMAF 211302
RWRMAF
MIDLAND AREA WEATHER ROUNDUP
NATIONAL WEATHER SERVICE MIDLAND TX
800 AM CDT SUN SEP 21 2014

...IN SOUTHWEST TEXAS AND SOUTHEAST NEW MEXICO...

CITY           SKY/WX    TMP DP  RH WIND       PRES   REMARKS
ALPINE         CLEAR     62  61  96 CALM      30.24R
ANDREWS        CLOUDY    69  69  99 SE6       30.16R
ARTESIA        NOT AVBL
BIG SPRING     CLOUDY    74  72  92 NE6       30.16R
CARLSBAD       CLOUDY    70  32  24 NE5       30.12R
DRYDEN           N/A     77  72  84 E9        30.07R
FORT STOCKTON  CLOUDY    72  68  87 SE7       30.12R
GUAD PASS      FOG       62  62 100 NE18        N/A  VSB 1/4
HOBBS          LGT RAIN  68  68 100 E10       30.18R FOG
MARFA          MOCLDY    57  55  94 N3        30.22R
MIDLAND AIRPK  HVY RAIN  72  72 100 SE5       30.14R
MIDLAND INTL   LGT RAIN  72  70  93 E7        30.13R
ODESSA         LGT RAIN  72  69  90 MISG      30.14R
PECOS          CLOUDY    71  68  91 E6        30.09R
PRESIDIO       FAIR      73  67  80 N7        30.07R
SEMINOLE       CLOUDY    67  66  97 CALM      30.18R
SNYDER         CLOUDY    70  69  98 NE3       30.16R
WINK           CLOUDY    73  70  90 E10       30.10R
$$
...OTHER STATIONS IN TEXAS...

CITY           SKY/WX    TMP DP  RH WIND       PRES   REMARKS
ABILENE        CLEAR     70  68  93 SE6       30.13R
AMARILLO       MOCLDY    65  64  97 W5        30.23R FOG
AUSTIN         PTCLDY    72  71  97 NE3       30.06R
BROWNSVILLE    PTCLDY    77  74  90 NW5       29.94R
CORPUS CHRISTI RAIN      77  74  90 NE10      29.96R
DALLAS FTW     PTCLDY    72  68  87 N5        30.08R
DEL RIO        MOCLDY    76  72  87 E8        30.03R
EL PASO        MOCLDY    70  64  81 NE7       30.13R
HOUSTON INT    MOSUNNY   74  71  91 N5        30.03R
LUBBOCK        FOG       68  67  96 NE6       30.19R VSB 1/2
SAN ANGELO     CLOUDY    71  69  93 E5        30.11R
SAN ANTONIO    PTCLDY    75  72  90 NE5       30.05R
WACO           CLEAR     69  67  93 CALM      30.07R
WICHITA FALLS  NOT AVBL
$$
...OTHER LOCATIONS IN NEW MEXICO...

CITY           SKY/WX    TMP DP  RH WIND       PRES   REMARKS
ALAMAGORDO     PTCLDY    64  59  82 NE6       30.17R
ALBUQUERQUE    PTCLDY    67  55  65 E16       30.29R
CANNON AFB     CLOUDY    66 N/A N/A NE5       30.26R
CLOVIS           N/A     66  64  94 NE8       30.28R
HOLLOMAN AFB   PTCLDY    64  61  90 NE3       30.15R
ROSWELL        CLOUDY    68  64  87 NE9       30.16R
RUIDOSO        PTCLDY    57  57 100 CALM      30.36R FOG
SANTA FE       CLEAR     56  52  86 S3        30.35R
TRUTH OR CONSE MOCLDY    65  62  90 N5        30.20R
TUCUMCARI      MOCLDY    63  60  90 CALM      30.25R
$$

USA.gov is the U.S. government's official web portal to all federal, state and local government web resources and services.